Time,TemperatureF,DewpointF,PressureIn,WindDirection,WindDirectionDegrees,WindSpeedMPH,WindSpeedGustMPH,Humidity,HourlyPrecipIn,Conditions,Clouds,dailyrainin,SoftwareType,DateUTC
2013-02-09 00:00:00,48.8,40.2,29.91,NW,319,22.0,22.0,72,0.00,,,0.00,Wunderground v.1.15,2013-02-09 05:00:00,
2013-02-09 00:01:00,48.8,40.5,29.91,NW,315,17.0,22.0,73,0.00,,,0.00,Wunderground v.1.15,2013-02-09 05:01:00,
2013-02-09 00:02:00,48.8,40.5,29.91,NW,322,23.0,23.0,73,0.00,,,0.00,Wunderground v.1.15,2013-02-09 05:02:00,
2013-02-09 00:07:00,48.7,40.8,29.91,NW,317,20.0,24.0,74,0.00,,,0.00,Wunderground v.1.15,2013-02-09 05:07:00,
2013-02-09 00:13:00,48.5,40.6,29.92,NW,325,21.0,24.0,74,0.00,,,0.00,Wunderground v.1.15,2013-02-09 05:13:00,
2013-02-09 00:18:00,48.3,39.7,29.92,NW,321,24.0,27.0,72,0.00,,,0.00,Wunderground v.1.15,2013-02-09 05:18:00,
2013-02-09 00:24:00,48.0,38.3,29.92,NNW,332,27.0,31.0,69,0.00,,,0.00,Wunderground v.1.15,2013-02-09 05:24:00,
2013-02-09 00:29:00,47.9,37.8,29.92,NNW,333,33.0,33.0,68,0.00,,,0.00,Wunderground v.1.15,2013-02-09 05:29:00,
2013-02-09 00:35:00,47.8,38.5,29.92,NW,319,21.0,24.0,70,0.00,,,0.00,Wunderground v.1.15,2013-02-09 05:35:00,
2013-02-09 00:41:00,47.7,37.7,29.92,NW,326,29.0,29.0,68,0.00,,,0.00,Wunderground v.1.15,2013-02-09 05:41:00,
2013-02-09 00:47:00,47.6,38.3,29.92,NW,310,26.0,30.0,70,0.00,,,0.00,Wunderground v.1.15,2013-02-09 05:47:00,
2013-02-09 00:52:00,47.5,38.6,29.93,NW,323,14.0,25.0,71,0.00,,,0.00,Wunderground v.1.15,2013-02-09 05:52:00,
2013-02-09 00:58:00,47.4,38.1,29.92,NNW,336,22.0,29.0,70,0.00,,,0.01,Wunderground v.1.15,2013-02-09 05:58:00,
2013-02-09 01:04:00,47.3,38.0,29.92,NW,314,26.0,29.0,70,0.00,,,0.01,Wunderground v.1.15,2013-02-09 06:04:00,
2013-02-09 01:09:00,47.2,37.5,29.92,NNW,328,30.0,30.0,69,0.00,,,0.01,Wunderground v.1.15,2013-02-09 06:09:00,
2013-02-09 01:15:00,47.1,37.4,29.93,NW,326,24.0,32.0,69,0.00,,,0.01,Wunderground v.1.15,2013-02-09 06:15:00,
2013-02-09 01:21:00,47.1,37.4,29.93,NW,325,26.0,26.0,69,0.00,,,0.01,Wunderground v.1.15,2013-02-09 06:21:00,
2013-02-09 01:26:00,47.2,38.6,29.93,WNW,300,21.0,27.0,72,0.00,,,0.01,Wunderground v.1.15,2013-02-09 06:26:00,
2013-02-09 01:31:00,47.0,38.4,29.93,NW,321,28.0,29.0,72,0.00,,,0.01,Wunderground v.1.15,2013-02-09 06:31:00,
2013-02-09 01:36:00,46.8,37.9,29.93,NNW,327,24.0,29.0,71,0.00,,,0.01,Wunderground v.1.15,2013-02-09 06:36:00,
2013-02-09 01:41:00,46.9,38.3,29.93,NW,324,20.0,23.0,72,0.00,,,0.01,Wunderground v.1.15,2013-02-09 06:41:00,
2013-02-09 01:46:00,46.7,37.8,29.93,NW,325,29.0,32.0,71,0.00,,,0.01,Wunderground v.1.15,2013-02-09 06:46:00,
2013-02-09 01:51:00,46.7,37.8,29.94,NW,321,32.0,32.0,71,0.00,,,0.01,Wunderground v.1.15,2013-02-09 06:51:00,
2013-02-09 01:56:00,46.7,37.8,29.94,WNW,298,20.0,32.0,71,0.00,,,0.01,Wunderground v.1.15,2013-02-09 06:56:00,
2013-02-09 02:01:00,46.7,37.8,29.93,NW,323,35.0,35.0,71,0.00,,,0.01,Wunderground v.1.15,2013-02-09 07:01:00,
2013-02-09 02:06:00,46.6,37.3,29.94,NW,315,20.0,35.0,70,0.00,,,0.01,Wunderground v.1.15,2013-02-09 07:06:00,
2013-02-09 02:11:00,46.6,37.3,29.94,NW,306,23.0,27.0,70,0.00,,,0.01,Wunderground v.1.15,2013-02-09 07:11:00,
2013-02-09 02:16:00,46.3,36.7,29.95,NW,322,19.0,30.0,69,0.00,,,0.01,Wunderground v.1.15,2013-02-09 07:16:00,
2013-02-09 02:21:00,46.2,36.6,29.95,NW,308,21.0,24.0,69,0.00,,,0.01,Wunderground v.1.15,2013-02-09 07:21:00,
2013-02-09 02:26:00,46.1,36.9,29.95,NNW,327,24.0,32.0,70,0.00,,,0.01,Wunderground v.1.15,2013-02-09 07:26:00,
2013-02-09 02:31:00,46.1,36.9,29.95,NW,311,19.0,28.0,70,0.00,,,0.01,Wunderground v.1.15,2013-02-09 07:31:00,
2013-02-09 02:36:00,46.0,36.8,29.95,NNW,331,23.0,29.0,70,0.00,,,0.01,Wunderground v.1.15,2013-02-09 07:36:00,
2013-02-09 02:41:00,45.8,35.8,29.95,NW,307,16.0,28.0,68,0.00,,,0.01,Wunderground v.1.15,2013-02-09 07:41:00,
2013-02-09 02:46:00,45.9,36.3,29.95,NW,325,24.0,32.0,69,0.00,,,0.01,Wunderground v.1.15,2013-02-09 07:46:00,
2013-02-09 02:51:00,45.9,36.3,29.95,NW,325,29.0,29.0,69,0.00,,,0.01,Wunderground v.1.15,2013-02-09 07:51:00,
2013-02-09 02:56:00,45.9,37.0,29.95,NW,318,18.0,29.0,71,0.00,,,0.01,Wunderground v.1.15,2013-02-09 07:56:00,
2013-02-09 03:01:00,45.6,35.6,29.96,NW,325,18.0,29.0,68,0.00,,,0.01,Wunderground v.1.15,2013-02-09 08:01:00,
2013-02-09 03:06:00,45.6,35.6,29.96,NW,306,21.0,30.0,68,0.00,,,0.01,Wunderground v.1.15,2013-02-09 08:06:00,
2013-02-09 03:11:00,45.4,35.8,29.96,NW,325,15.0,23.0,69,0.00,,,0.01,Wunderground v.1.15,2013-02-09 08:11:00,
2013-02-09 03:16:00,45.4,35.5,29.96,NW,312,22.0,29.0,68,0.00,,,0.01,Wunderground v.1.15,2013-02-09 08:16:00,
2013-02-09 03:21:00,45.3,35.0,29.96,NNW,333,23.0,32.0,67,0.00,,,0.01,Wunderground v.1.15,2013-02-09 08:21:00,
2013-02-09 03:26:00,45.2,35.3,29.96,NW,323,25.0,32.0,68,0.00,,,0.01,Wunderground v.1.15,2013-02-09 08:26:00,
2013-02-09 03:31:00,45.2,35.3,29.97,NNW,327,24.0,30.0,68,0.00,,,0.01,Wunderground v.1.15,2013-02-09 08:31:00,
2013-02-09 03:36:00,45.2,35.6,29.97,NNW,327,18.0,33.0,69,0.00,,,0.01,Wunderground v.1.15,2013-02-09 08:36:00,
2013-02-09 03:41:00,45.2,35.6,29.97,NW,324,20.0,30.0,69,0.00,,,0.01,Wunderground v.1.15,2013-02-09 08:41:00,
2013-02-09 03:46:00,45.2,35.3,29.97,NW,319,19.0,31.0,68,0.00,,,0.01,Wunderground v.1.15,2013-02-09 08:46:00,
2013-02-09 03:51:00,45.2,36.4,29.98,NNW,330,23.0,30.0,71,0.00,,,0.01,Wunderground v.1.15,2013-02-09 08:51:00,
2013-02-09 03:57:00,45.0,35.1,29.98,NW,324,25.0,30.0,68,0.00,,,0.01,Wunderground v.1.15,2013-02-09 08:57:00,
2013-02-09 04:02:00,44.8,34.9,29.98,NW,315,27.0,31.0,68,0.00,,,0.01,Wunderground v.1.15,2013-02-09 09:02:00,
2013-02-09 04:07:00,44.7,35.1,29.97,NNW,329,25.0,34.0,69,0.00,,,0.01,Wunderground v.1.15,2013-02-09 09:07:00,
2013-02-09 04:12:00,44.7,35.1,29.98,NW,315,24.0,32.0,69,0.00,,,0.01,Wunderground v.1.15,2013-02-09 09:12:00,
2013-02-09 04:17:00,44.7,35.5,29.98,NW,323,21.0,33.0,70,0.00,,,0.01,Wunderground v.1.15,2013-02-09 09:17:00,
2013-02-09 04:22:00,44.7,35.5,29.98,NW,314,23.0,28.0,70,0.00,,,0.01,Wunderground v.1.15,2013-02-09 09:22:00,
2013-02-09 04:27:00,44.5,34.6,29.99,NW,319,26.0,32.0,68,0.00,,,0.01,Wunderground v.1.15,2013-02-09 09:27:00,
2013-02-09 04:32:00,44.3,35.1,29.99,NW,318,20.0,31.0,70,0.00,,,0.01,Wunderground v.1.15,2013-02-09 09:32:00,
2013-02-09 04:37:00,44.2,34.7,29.99,NNW,336,25.0,31.0,69,0.00,,,0.01,Wunderground v.1.15,2013-02-09 09:37:00,
2013-02-09 04:42:00,44.1,34.2,29.99,NW,324,26.0,29.0,68,0.00,,,0.01,Wunderground v.1.15,2013-02-09 09:42:00,
2013-02-09 04:47:00,44.0,34.5,30.00,NNW,329,23.0,29.0,69,0.00,,,0.01,Wunderground v.1.15,2013-02-09 09:47:00,
2013-02-09 04:52:00,44.0,35.6,30.00,NNW,334,19.0,23.0,72,0.00,,,0.01,Wunderground v.1.15,2013-02-09 09:52:00,
2013-02-09 04:57:00,43.9,34.7,30.01,NNW,339,20.0,30.0,70,0.00,,,0.01,Wunderground v.1.15,2013-02-09 09:57:00,
2013-02-09 05:02:00,43.8,34.3,30.01,NW,317,19.0,27.0,69,0.00,,,0.01,Wunderground v.1.15,2013-02-09 10:02:00,
2013-02-09 05:07:00,43.7,34.9,30.01,NNW,334,26.0,30.0,71,0.00,,,0.01,Wunderground v.1.15,2013-02-09 10:07:00,
2013-02-09 05:12:00,43.7,34.2,30.01,NNW,340,26.0,31.0,69,0.00,,,0.01,Wunderground v.1.15,2013-02-09 10:12:00,
2013-02-09 05:17:00,43.7,34.2,30.02,NW,326,28.0,33.0,69,0.00,,,0.01,Wunderground v.1.15,2013-02-09 10:17:00,
2013-02-09 05:22:00,43.6,34.5,30.02,NW,326,25.0,29.0,70,0.00,,,0.01,Wunderground v.1.15,2013-02-09 10:22:00,
2013-02-09 05:27:00,43.7,34.9,30.03,NNW,340,22.0,31.0,71,0.00,,,0.01,Wunderground v.1.15,2013-02-09 10:27:00,
2013-02-09 05:32:00,43.7,35.3,30.03,NW,321,21.0,28.0,72,0.00,,,0.01,Wunderground v.1.15,2013-02-09 10:32:00,
2013-02-09 05:37:00,43.5,34.0,30.03,NNW,338,28.0,32.0,69,0.00,,,0.01,Wunderground v.1.15,2013-02-09 10:37:00,
2013-02-09 05:42:00,43.5,34.4,30.03,NW,323,23.0,30.0,70,0.00,,,0.01,Wunderground v.1.15,2013-02-09 10:42:00,
2013-02-09 05:47:00,43.5,34.4,30.04,NW,321,23.0,31.0,70,0.00,,,0.01,Wunderground v.1.15,2013-02-09 10:47:00,
2013-02-09 05:52:00,43.6,34.8,30.05,NNW,329,26.0,26.0,71,0.00,,,0.01,Wunderground v.1.15,2013-02-09 10:52:00,
2013-02-09 05:57:00,43.3,33.4,30.04,NNW,338,24.0,31.0,68,0.00,,,0.01,Wunderground v.1.15,2013-02-09 10:57:00,
2013-02-09 06:02:00,43.4,33.9,30.04,NNW,338,21.0,30.0,69,0.00,,,0.01,Wunderground v.1.15,2013-02-09 11:02:00,
2013-02-09 06:07:00,43.3,34.2,30.05,NW,307,24.0,31.0,70,0.00,,,0.01,Wunderground v.1.15,2013-02-09 11:07:00,
2013-02-09 06:12:00,43.1,34.0,30.05,NW,324,24.0,27.0,70,0.00,,,0.01,Wunderground v.1.15,2013-02-09 11:12:00,
2013-02-09 06:17:00,43.1,34.0,30.06,NW,310,26.0,30.0,70,0.00,,,0.01,Wunderground v.1.15,2013-02-09 11:17:00,
2013-02-09 06:22:00,43.1,34.0,30.06,NNW,330,26.0,30.0,70,0.00,,,0.01,Wunderground v.1.15,2013-02-09 11:22:00,
2013-02-09 06:27:00,43.1,34.3,30.06,NNW,344,22.0,33.0,71,0.00,,,0.01,Wunderground v.1.15,2013-02-09 11:27:00,
2013-02-09 06:32:00,42.9,33.4,30.06,NW,319,27.0,32.0,69,0.00,,,0.01,Wunderground v.1.15,2013-02-09 11:32:00,
2013-02-09 06:37:00,43.0,33.9,30.07,NNW,333,25.0,32.0,70,0.00,,,0.01,Wunderground v.1.15,2013-02-09 11:37:00,
2013-02-09 06:42:00,43.0,33.5,30.08,NW,326,30.0,31.0,69,0.00,,,0.01,Wunderground v.1.15,2013-02-09 11:42:00,
2013-02-09 06:47:00,43.1,34.7,30.08,NNW,340,29.0,31.0,72,0.00,,,0.01,Wunderground v.1.15,2013-02-09 11:47:00,
2013-02-09 06:52:00,42.8,33.7,30.08,NNW,329,27.0,28.0,70,0.00,,,0.01,Wunderground v.1.15,2013-02-09 11:52:00,
2013-02-09 06:57:00,42.9,34.5,30.08,NNW,337,26.0,34.0,72,0.00,,,0.01,Wunderground v.1.15,2013-02-09 11:57:00,
2013-02-09 07:02:00,42.8,34.0,30.09,NW,325,24.0,29.0,71,0.00,,,0.01,Wunderground v.1.15,2013-02-09 12:02:00,
2013-02-09 07:07:00,42.7,33.9,30.09,NW,325,24.0,29.0,71,0.00,,,0.01,Wunderground v.1.15,2013-02-09 12:07:00,
2013-02-09 07:12:00,42.7,33.9,30.09,NNW,329,27.0,29.0,71,0.00,,,0.01,Wunderground v.1.15,2013-02-09 12:12:00,
2013-02-09 07:18:00,42.7,33.6,30.10,NW,318,23.0,29.0,70,0.00,,,0.01,Wunderground v.1.15,2013-02-09 12:18:00,
2013-02-09 07:23:00,42.6,33.1,30.10,NNW,330,28.0,30.0,69,0.00,,,0.01,Wunderground v.1.15,2013-02-09 12:23:00,
2013-02-09 07:28:00,42.7,33.2,30.10,NW,316,27.0,30.0,69,0.00,,,0.01,Wunderground v.1.15,2013-02-09 12:28:00,
2013-02-09 07:33:00,42.7,33.9,30.10,NW,323,15.0,28.0,71,0.00,,,0.01,Wunderground v.1.15,2013-02-09 12:33:00,
2013-02-09 07:38:00,42.9,34.1,30.11,NNW,330,25.0,28.0,71,0.00,,,0.01,Wunderground v.1.15,2013-02-09 12:38:00,
2013-02-09 07:43:00,42.8,33.0,30.10,NNW,335,30.0,33.0,68,0.00,,,0.01,Wunderground v.1.15,2013-02-09 12:43:00,
2013-02-09 07:48:00,42.9,33.8,30.11,NNW,336,24.0,33.0,70,0.00,,,0.01,Wunderground v.1.15,2013-02-09 12:48:00,
2013-02-09 07:53:00,42.9,33.4,30.11,NNW,334,28.0,32.0,69,0.00,,,0.01,Wunderground v.1.15,2013-02-09 12:53:00,
2013-02-09 07:58:00,42.8,32.6,30.11,NW,323,26.0,32.0,67,0.00,,,0.01,Wunderground v.1.15,2013-02-09 12:58:00,
2013-02-09 08:03:00,43.0,33.2,30.12,NNW,327,27.0,31.0,68,0.00,,,0.01,Wunderground v.1.15,2013-02-09 13:03:00,
2013-02-09 08:08:00,42.9,33.8,30.12,NNW,330,23.0,31.0,70,0.00,,,0.01,Wunderground v.1.15,2013-02-09 13:08:00,
2013-02-09 08:13:00,42.9,32.7,30.12,NW,325,27.0,31.0,67,0.00,,,0.01,Wunderground v.1.15,2013-02-09 13:13:00,
2013-02-09 08:18:00,43.0,33.5,30.13,NNW,333,20.0,32.0,69,0.00,,,0.01,Wunderground v.1.15,2013-02-09 13:18:00,
2013-02-09 08:23:00,42.9,33.1,30.14,NNW,335,19.0,28.0,68,0.00,,,0.01,Wunderground v.1.15,2013-02-09 13:23:00,
2013-02-09 08:28:00,42.9,32.7,30.14,NNW,331,24.0,30.0,67,0.00,,,0.01,Wunderground v.1.15,2013-02-09 13:28:00,
2013-02-09 08:33:00,42.7,32.5,30.14,NNW,338,25.0,30.0,67,0.00,,,0.01,Wunderground v.1.15,2013-02-09 13:33:00,
2013-02-09 08:38:00,42.7,32.1,30.15,NNW,328,27.0,30.0,66,0.00,,,0.01,Wunderground v.1.15,2013-02-09 13:38:00,
2013-02-09 08:43:00,42.7,32.5,30.15,NNW,331,30.0,30.0,67,0.00,,,0.01,Wunderground v.1.15,2013-02-09 13:43:00,
2013-02-09 08:48:00,42.6,32.8,30.15,NNW,331,25.0,30.0,68,0.00,,,0.01,Wunderground v.1.15,2013-02-09 13:48:00,
2013-02-09 08:53:00,42.8,33.0,30.15,NNW,338,22.0,29.0,68,0.00,,,0.01,Wunderground v.1.15,2013-02-09 13:53:00,
2013-02-09 08:58:00,42.4,31.8,30.15,NNW,333,25.0,31.0,66,0.00,,,0.01,Wunderground v.1.15,2013-02-09 13:58:00,
2013-02-09 09:03:00,42.4,32.2,30.15,NW,323,22.0,29.0,67,0.00,,,0.01,Wunderground v.1.15,2013-02-09 14:03:00,
2013-02-09 09:08:00,42.7,32.5,30.15,NNW,331,24.0,29.0,67,0.00,,,0.01,Wunderground v.1.15,2013-02-09 14:08:00,
2013-02-09 09:13:00,42.4,31.5,30.15,NNW,333,24.0,28.0,65,0.00,,,0.00,Wunderground v.1.15,2013-02-09 14:13:00,
2013-02-09 09:18:00,42.7,33.2,30.16,NNW,334,27.0,28.0,69,0.00,,,0.00,Wunderground v.1.15,2013-02-09 14:18:00,
2013-02-09 09:23:00,42.6,33.5,30.16,NNW,336,23.0,28.0,70,0.00,,,0.00,Wunderground v.1.15,2013-02-09 14:23:00,
2013-02-09 09:28:00,42.5,33.0,30.16,NNW,340,23.0,28.0,69,0.00,,,0.00,Wunderground v.1.15,2013-02-09 14:28:00,
2013-02-09 09:33:00,42.6,33.1,30.16,NW,325,27.0,27.0,69,0.00,,,0.00,Wunderground v.1.15,2013-02-09 14:33:00,
2013-02-09 09:38:00,42.3,32.1,30.16,NW,318,25.0,28.0,67,0.00,,,0.00,Wunderground v.1.15,2013-02-09 14:38:00,
2013-02-09 09:43:00,42.5,33.0,30.16,NNW,330,24.0,27.0,69,0.00,,,0.00,Wunderground v.1.15,2013-02-09 14:43:00,
2013-02-09 09:48:00,42.5,32.3,30.16,NNW,328,17.0,27.0,67,0.00,,,0.00,Wunderground v.1.15,2013-02-09 14:48:00,
2013-02-09 09:53:00,42.9,33.4,30.16,NNW,348,22.0,25.0,69,0.00,,,0.00,Wunderground v.1.15,2013-02-09 14:53:00,
2013-02-09 09:58:00,43.2,33.3,30.16,NNW,327,20.0,28.0,68,0.00,,,0.00,Wunderground v.1.15,2013-02-09 14:58:00,
2013-02-09 10:03:00,43.0,32.0,30.17,NNW,336,20.0,27.0,65,0.00,,,0.00,Wunderground v.1.15,2013-02-09 15:03:00,
2013-02-09 10:08:00,42.9,31.6,30.16,NNW,342,24.0,29.0,64,0.00,,,0.00,Wunderground v.1.15,2013-02-09 15:08:00,
2013-02-09 10:13:00,43.1,32.5,30.17,NNW,340,23.0,29.0,66,0.00,,,0.00,Wunderground v.1.15,2013-02-09 15:13:00,
2013-02-09 10:18:00,43.0,32.0,30.17,NNW,333,21.0,29.0,65,0.00,,,0.00,Wunderground v.1.15,2013-02-09 15:18:00,
2013-02-09 10:23:00,43.1,32.9,30.17,NNW,334,25.0,28.0,67,0.00,,,0.00,Wunderground v.1.15,2013-02-09 15:23:00,
2013-02-09 10:28:00,43.1,32.5,30.17,NNW,333,21.0,29.0,66,0.00,,,0.00,Wunderground v.1.15,2013-02-09 15:28:00,
2013-02-09 10:33:00,43.2,33.0,30.17,NNW,343,19.0,26.0,67,0.00,,,0.00,Wunderground v.1.15,2013-02-09 15:33:00,
2013-02-09 10:38:00,43.4,31.6,30.17,NNW,348,25.0,27.0,63,0.00,,,0.00,Wunderground v.1.15,2013-02-09 15:38:00,
2013-02-09 10:43:00,43.4,31.6,30.17,NNW,342,25.0,28.0,63,0.00,,,0.00,Wunderground v.1.15,2013-02-09 15:43:00,
2013-02-09 10:48:00,43.5,31.7,30.17,NNW,342,21.0,28.0,63,0.00,,,0.00,Wunderground v.1.15,2013-02-09 15:48:00,
2013-02-09 10:53:00,43.6,31.0,30.17,NNW,345,16.0,26.0,61,0.00,,,0.00,Wunderground v.1.15,2013-02-09 15:53:00,
2013-02-09 10:58:00,43.8,32.0,30.17,NNW,344,27.0,28.0,63,0.00,,,0.00,Wunderground v.1.15,2013-02-09 15:58:00,
2013-02-09 11:03:00,43.6,31.8,30.17,NNW,338,19.0,26.0,63,0.00,,,0.00,Wunderground v.1.15,2013-02-09 16:03:00,
2013-02-09 11:08:00,43.7,31.1,30.17,NNW,342,25.0,27.0,61,0.00,,,0.00,Wunderground v.1.15,2013-02-09 16:08:00,
2013-02-09 11:13:00,43.5,30.9,30.17,NNW,344,20.0,27.0,61,0.00,,,0.00,Wunderground v.1.15,2013-02-09 16:13:00,
2013-02-09 11:18:00,43.7,31.5,30.17,NNW,346,23.0,27.0,62,0.00,,,0.00,Wunderground v.1.15,2013-02-09 16:18:00,
2013-02-09 11:23:00,43.8,31.6,30.17,NNW,344,21.0,25.0,62,0.00,,,0.00,Wunderground v.1.15,2013-02-09 16:23:00,
2013-02-09 11:28:00,43.8,31.2,30.17,NNW,344,20.0,26.0,61,0.00,,,0.00,Wunderground v.1.15,2013-02-09 16:28:00,
2013-02-09 11:33:00,44.0,31.8,30.18,NNW,343,19.0,24.0,62,0.00,,,0.00,Wunderground v.1.15,2013-02-09 16:33:00,
2013-02-09 11:38:00,43.9,31.7,30.17,NNW,342,21.0,25.0,62,0.00,,,0.00,Wunderground v.1.15,2013-02-09 16:38:00,
2013-02-09 11:43:00,44.1,33.5,30.17,NNW,348,17.0,23.0,66,0.00,,,0.00,Wunderground v.1.15,2013-02-09 16:43:00,
2013-02-09 11:48:00,44.2,32.0,30.17,North,351,22.0,24.0,62,0.00,,,0.00,Wunderground v.1.15,2013-02-09 16:48:00,
2013-02-09 11:53:00,44.2,32.8,30.17,North,355,19.0,25.0,64,0.00,,,0.00,Wunderground v.1.15,2013-02-09 16:53:00,
2013-02-09 11:59:00,44.2,32.4,30.17,North,349,20.0,25.0,63,0.00,,,0.00,Wunderground v.1.15,2013-02-09 16:59:00,
2013-02-09 12:04:00,44.3,32.9,30.17,NNW,345,26.0,26.0,64,0.00,,,0.00,Wunderground v.1.15,2013-02-09 17:04:00,
2013-02-09 12:09:00,44.3,32.5,30.17,North,351,21.0,26.0,63,0.00,,,0.00,Wunderground v.1.15,2013-02-09 17:09:00,
2013-02-09 12:14:00,44.5,33.1,30.17,North,360,20.0,25.0,64,0.00,,,0.00,Wunderground v.1.15,2013-02-09 17:14:00,
2013-02-09 12:19:00,44.7,32.9,30.16,North,355,24.0,27.0,63,0.00,,,0.00,Wunderground v.1.15,2013-02-09 17:19:00,
2013-02-09 12:24:00,44.6,32.4,30.17,North,355,20.0,26.0,62,0.00,,,0.00,Wunderground v.1.15,2013-02-09 17:24:00,
2013-02-09 12:29:00,44.8,33.0,30.17,NNW,346,22.0,26.0,63,0.00,,,0.00,Wunderground v.1.15,2013-02-09 17:29:00,
2013-02-09 12:34:00,44.8,33.0,30.17,North,5,17.0,22.0,63,0.00,,,0.00,Wunderground v.1.15,2013-02-09 17:34:00,
2013-02-09 12:39:00,45.0,33.5,30.17,North,350,17.0,24.0,64,0.00,,,0.00,Wunderground v.1.15,2013-02-09 17:39:00,
2013-02-09 12:44:00,45.1,32.8,30.16,North,360,21.0,25.0,62,0.00,,,0.00,Wunderground v.1.15,2013-02-09 17:44:00,
2013-02-09 12:49:00,45.3,32.6,30.16,NNW,347,20.0,25.0,61,0.00,,,0.00,Wunderground v.1.15,2013-02-09 17:49:00,
2013-02-09 12:54:00,45.3,31.4,30.16,NNW,338,22.0,25.0,58,0.00,,,0.00,Wunderground v.1.15,2013-02-09 17:54:00,
2013-02-09 12:59:00,45.4,31.9,30.16,North,360,24.0,25.0,59,0.00,,,0.00,Wunderground v.1.15,2013-02-09 17:59:00,
2013-02-09 13:04:00,45.5,32.8,30.16,NNW,345,17.0,23.0,61,0.00,,,0.00,Wunderground v.1.15,2013-02-09 18:04:00,
2013-02-09 13:09:00,45.8,32.7,30.15,NNW,348,23.0,27.0,60,0.00,,,0.00,Wunderground v.1.15,2013-02-09 18:09:00,
2013-02-09 13:14:00,45.8,32.7,30.16,North,349,19.0,25.0,60,0.00,,,0.00,Wunderground v.1.15,2013-02-09 18:14:00,
2013-02-09 13:18:00,45.9,31.9,30.16,North,355,16.0,25.0,58,0.00,,,0.00,Wunderground v.1.15,2013-02-09 18:18:00,
2013-02-09 13:23:00,45.9,31.9,30.16,NNW,342,16.0,23.0,58,0.00,,,0.00,Wunderground v.1.15,2013-02-09 18:23:00,
2013-02-09 13:29:00,46.0,32.9,30.16,North,349,19.0,23.0,60,0.00,,,0.00,Wunderground v.1.15,2013-02-09 18:29:00,
2013-02-09 13:34:00,46.3,32.7,30.16,NNW,343,20.0,22.0,59,0.00,,,0.00,Wunderground v.1.15,2013-02-09 18:34:00,
2013-02-09 13:39:00,46.6,33.9,30.16,North,355,17.0,22.0,61,0.00,,,0.00,Wunderground v.1.15,2013-02-09 18:39:00,
2013-02-09 13:44:00,46.7,35.2,30.16,NNW,336,20.0,20.0,64,0.00,,,0.00,Wunderground v.1.15,2013-02-09 18:44:00,
2013-02-09 13:49:00,46.9,33.3,30.16,NNW,344,22.0,22.0,59,0.00,,,0.00,Wunderground v.1.15,2013-02-09 18:49:00,
2013-02-09 13:54:00,46.8,32.4,30.16,NNW,344,23.0,24.0,57,0.00,,,0.00,Wunderground v.1.15,2013-02-09 18:54:00,
2013-02-09 13:59:00,46.8,31.5,30.16,North,9,21.0,25.0,55,0.00,,,0.00,Wunderground v.1.15,2013-02-09 18:59:00,
2013-02-09 14:04:00,47.0,33.4,30.17,NNW,342,21.0,26.0,59,0.00,,,0.00,Wunderground v.1.15,2013-02-09 19:04:00,
2013-02-09 14:09:00,47.1,32.6,30.16,NNW,338,15.0,26.0,57,0.00,,,0.00,Wunderground v.1.15,2013-02-09 19:09:00,
2013-02-09 14:14:00,47.1,33.1,30.17,North,360,20.0,24.0,58,0.00,,,0.00,Wunderground v.1.15,2013-02-09 19:14:00,
2013-02-09 14:19:00,47.2,32.7,30.17,NNW,341,21.0,24.0,57,0.00,,,0.00,Wunderground v.1.15,2013-02-09 19:19:00,
2013-02-09 14:24:00,47.2,33.2,30.16,NNW,346,18.0,24.0,58,0.00,,,0.00,Wunderground v.1.15,2013-02-09 19:24:00,
2013-02-09 14:29:00,47.2,33.2,30.17,North,355,14.0,24.0,58,0.00,,,0.00,Wunderground v.1.15,2013-02-09 19:29:00,
2013-02-09 14:34:00,47.4,31.1,30.16,North,355,21.0,22.0,53,0.00,,,0.00,Wunderground v.1.15,2013-02-09 19:34:00,
2013-02-09 14:39:00,47.5,32.1,30.17,North,350,17.0,24.0,55,0.00,,,0.00,Wunderground v.1.15,2013-02-09 19:39:00,
2013-02-09 14:44:00,47.7,33.6,30.17,NNW,344,17.0,20.0,58,0.00,,,0.00,Wunderground v.1.15,2013-02-09 19:44:00,
2013-02-09 14:49:00,47.8,33.7,30.17,North,349,17.0,22.0,58,0.00,,,0.00,Wunderground v.1.15,2013-02-09 19:49:00,
2013-02-09 14:54:00,48.0,34.3,30.17,North,355,16.0,21.0,59,0.00,,,0.00,Wunderground v.1.15,2013-02-09 19:54:00,
2013-02-09 14:59:00,48.1,33.1,30.17,NNW,346,17.0,22.0,56,0.00,,,0.00,Wunderground v.1.15,2013-02-09 19:59:00,
2013-02-09 15:04:00,48.0,32.6,30.17,North,351,14.0,23.0,55,0.00,,,0.00,Wunderground v.1.15,2013-02-09 20:04:00,
2013-02-09 15:09:00,48.1,34.4,30.17,North,355,18.0,23.0,59,0.00,,,0.00,Wunderground v.1.15,2013-02-09 20:09:00,
2013-02-09 15:14:00,48.2,33.2,30.17,North,355,16.0,20.0,56,0.00,,,0.00,Wunderground v.1.15,2013-02-09 20:14:00,
2013-02-09 15:19:00,48.2,34.1,30.18,North,355,15.0,20.0,58,0.00,,,0.00,Wunderground v.1.15,2013-02-09 20:19:00,
2013-02-09 15:24:00,48.3,33.8,30.18,NNW,348,14.0,19.0,57,0.00,,,0.00,Wunderground v.1.15,2013-02-09 20:24:00,
2013-02-09 15:29:00,48.2,31.9,30.18,North,355,15.0,20.0,53,0.00,,,0.00,Wunderground v.1.15,2013-02-09 20:29:00,
2013-02-09 15:34:00,48.3,32.9,30.18,North,360,15.0,18.0,55,0.00,,,0.00,Wunderground v.1.15,2013-02-09 20:34:00,
2013-02-09 15:39:00,48.5,33.1,30.18,North,5,13.0,18.0,55,0.00,,,0.00,Wunderground v.1.15,2013-02-09 20:39:00,
2013-02-09 15:44:00,48.5,33.9,30.18,North,355,19.0,19.0,57,0.00,,,0.00,Wunderground v.1.15,2013-02-09 20:44:00,
2013-02-09 15:49:00,48.6,34.0,30.18,North,5,14.0,19.0,57,0.00,,,0.00,Wunderground v.1.15,2013-02-09 20:49:00,
2013-02-09 15:54:00,48.7,34.1,30.18,North,355,13.0,18.0,57,0.00,,,0.00,Wunderground v.1.15,2013-02-09 20:54:00,
2013-02-09 15:59:00,48.8,34.7,30.18,North,360,17.0,18.0,58,0.00,,,0.00,Wunderground v.1.15,2013-02-09 20:59:00,
2013-02-09 16:04:00,48.8,34.2,30.18,North,5,18.0,19.0,57,0.00,,,0.00,Wunderground v.1.15,2013-02-09 21:04:00,
2013-02-09 16:09:00,48.8,33.3,30.18,North,5,18.0,20.0,55,0.00,,,0.00,Wunderground v.1.15,2013-02-09 21:09:00,
2013-02-09 16:14:00,48.8,33.3,30.18,North,5,15.0,19.0,55,0.00,,,0.00,Wunderground v.1.15,2013-02-09 21:14:00,
2013-02-09 16:19:00,48.8,33.3,30.19,North,10,14.0,20.0,55,0.00,,,0.00,Wunderground v.1.15,2013-02-09 21:19:00,
2013-02-09 16:24:00,48.7,32.8,30.18,NNE,15,16.0,20.0,54,0.00,,,0.00,Wunderground v.1.15,2013-02-09 21:24:00,
2013-02-09 16:29:00,48.8,35.1,30.19,North,9,12.0,20.0,59,0.00,,,0.00,Wunderground v.1.15,2013-02-09 21:29:00,
2013-02-09 16:34:00,48.8,32.4,30.19,North,9,14.0,19.0,53,0.00,,,0.00,Wunderground v.1.15,2013-02-09 21:34:00,
2013-02-09 16:39:00,48.9,33.0,30.19,NNE,13,12.0,19.0,54,0.00,,,0.00,Wunderground v.1.15,2013-02-09 21:39:00,
2013-02-09 16:44:00,48.9,33.4,30.20,North,9,15.0,17.0,55,0.00,,,0.00,Wunderground v.1.15,2013-02-09 21:44:00,
2013-02-09 16:49:00,48.9,33.4,30.20,North,360,15.0,17.0,55,0.00,,,0.00,Wunderground v.1.15,2013-02-09 21:49:00,
2013-02-09 16:54:00,48.9,34.8,30.20,North,9,13.0,17.0,58,0.00,,,0.00,Wunderground v.1.15,2013-02-09 21:54:00,
2013-02-09 22:29:00,46.5,30.7,30.31,NNE,19,10.0,14.0,54,0.00,,,0.00,Wunderground v.1.15,2013-02-10 03:29:00,
2013-02-09 22:34:00,46.5,29.8,30.31,North,5,12.0,14.0,52,0.00,,,0.00,Wunderground v.1.15,2013-02-10 03:34:00,
2013-02-09 22:39:00,46.4,30.2,30.31,NNE,12,9.0,15.0,53,0.00,,,0.00,Wunderground v.1.15,2013-02-10 03:39:00,
2013-02-09 22:44:00,46.4,29.7,30.31,NNE,20,8.0,14.0,52,0.00,,,0.00,Wunderground v.1.15,2013-02-10 03:44:00,
2013-02-09 22:49:00,46.4,30.6,30.31,NNE,15,8.0,14.0,54,0.00,,,0.00,Wunderground v.1.15,2013-02-10 03:49:00,
2013-02-09 22:54:00,46.3,31.9,30.32,NNE,33,7.0,11.0,57,0.00,,,0.00,Wunderground v.1.15,2013-02-10 03:54:00,
2013-02-09 22:59:00,46.1,29.4,30.32,NNE,18,13.0,15.0,52,0.00,,,0.00,Wunderground v.1.15,2013-02-10 03:59:00,
2013-02-09 23:04:00,45.9,31.1,30.32,NE,34,6.0,14.0,56,0.00,,,0.00,Wunderground v.1.15,2013-02-10 04:04:00,
2013-02-09 23:09:00,45.7,31.3,30.31,NNE,27,14.0,14.0,57,0.00,,,0.00,Wunderground v.1.15,2013-02-10 04:09:00,
2013-02-09 23:14:00,45.5,31.1,30.32,NNE,28,12.0,14.0,57,0.00,,,0.00,Wunderground v.1.15,2013-02-10 04:14:00,
2013-02-09 23:19:00,45.4,32.3,30.31,NE,35,9.0,14.0,60,0.00,,,0.00,Wunderground v.1.15,2013-02-10 04:19:00,
2013-02-09 23:24:00,45.2,32.5,30.32,NE,36,10.0,12.0,61,0.00,,,0.00,Wunderground v.1.15,2013-02-10 04:24:00,
2013-02-09 23:29:00,45.1,33.2,30.32,NE,36,13.0,14.0,63,0.00,,,0.00,Wunderground v.1.15,2013-02-10 04:29:00,
2013-02-09 23:34:00,44.9,34.2,30.32,NE,49,10.0,12.0,66,0.00,,,0.00,Wunderground v.1.15,2013-02-10 04:34:00,
2013-02-09 23:39:00,44.7,34.8,30.32,NE,56,7.0,13.0,68,0.00,,,0.00,Wunderground v.1.15,2013-02-10 04:39:00,
2013-02-09 23:44:00,44.5,34.6,30.32,NE,49,10.0,12.0,68,0.00,,,0.00,Wunderground v.1.15,2013-02-10 04:44:00,
2013-02-09 23:49:00,44.3,34.0,30.32,NE,47,14.0,14.0,67,0.00,,,0.00,Wunderground v.1.15,2013-02-10 04:49:00,
2013-02-09 23:54:00,44.3,33.3,30.32,NE,50,8.0,15.0,65,0.00,,,0.00,Wunderground v.1.15,2013-02-10 04:54:00,
2013-02-09 23:59:00,44.4,31.0,30.32,NNE,31,10.0,16.0,59,0.00,,,0.00,Wunderground v.1.15,2013-02-10 04:59:00,